TimeEST,TemperatureF,Dew PointF,Humidity,Sea Level PressureIn,VisibilityMPH,Wind Direction,Wind SpeedMPH,Gust SpeedMPH,PrecipitationIn,Events,Conditions,WindDirDegrees,DateUTC
12:15 AM,36.7,35.4,95,30.43,10.0,Calm,Calm,-,N/A,,Clear,0,2013-11-05 05:15:00
12:35 AM,36.5,35.1,95,30.44,10.0,Calm,Calm,-,N/A,,Clear,0,2013-11-05 05:35:00
12:55 AM,36.0,34.7,95,30.44,10.0,Calm,Calm,-,N/A,,Clear,0,2013-11-05 05:55:00
1:15 AM,36.0,34.7,95,30.44,10.0,Calm,Calm,-,N/A,,Clear,0,2013-11-05 06:15:00
1:35 AM,35.8,34.7,96,30.44,10.0,Calm,Calm,-,N/A,,Clear,0,2013-11-05 06:35:00
1:55 AM,35.6,34.3,95,30.44,10.0,Calm,Calm,-,N/A,,Clear,0,2013-11-05 06:55:00
2:15 AM,35.6,34.3,95,30.44,10.0,Calm,Calm,-,N/A,,Clear,0,2013-11-05 07:15:00
2:35 AM,36.5,34.7,93,30.45,10.0,Calm,Calm,-,N/A,,Clear,0,2013-11-05 07:35:00
2:55 AM,36.5,35.1,95,30.44,10.0,Calm,Calm,-,N/A,,Clear,0,2013-11-05 07:55:00
3:15 AM,36.5,35.1,95,30.44,10.0,Calm,Calm,-,N/A,,Clear,0,2013-11-05 08:15:00
3:35 AM,36.0,34.9,96,30.43,10.0,Calm,Calm,-,N/A,,Clear,0,2013-11-05 08:35:00
3:55 AM,35.8,34.9,97,30.44,10.0,Calm,Calm,-,N/A,,Clear,0,2013-11-05 08:55:00
4:15 AM,35.2,34.3,97,30.44,10.0,Calm,Calm,-,N/A,,Clear,0,2013-11-05 09:15:00
4:35 AM,34.7,34.0,97,30.45,10.0,Calm,Calm,-,N/A,,Clear,0,2013-11-05 09:35:00
4:55 AM,34.2,33.3,97,30.45,10.0,Calm,Calm,-,N/A,,Clear,0,2013-11-05 09:55:00
5:15 AM,34.9,33.8,96,30.45,10.0,Calm,Calm,-,N/A,,Clear,0,2013-11-05 10:15:00
5:35 AM,35.1,34.0,96,30.45,10.0,Calm,Calm,-,N/A,,Clear,0,2013-11-05 10:35:00
5:55 AM,35.6,34.5,96,30.45,10.0,Calm,Calm,-,N/A,,Clear,0,2013-11-05 10:55:00
6:15 AM,35.4,34.7,97,30.44,10.0,Calm,Calm,-,N/A,,Clear,0,2013-11-05 11:15:00
6:35 AM,35.6,34.3,95,30.44,10.0,Calm,Calm,-,N/A,,Clear,0,2013-11-05 11:35:00
6:55 AM,35.8,34.7,96,30.44,10.0,Calm,Calm,-,N/A,,Clear,0,2013-11-05 11:55:00
7:15 AM,35.6,34.5,96,30.45,10.0,Calm,Calm,-,N/A,,Clear,0,2013-11-05 12:15:00
7:35 AM,35.8,34.3,94,30.45,10.0,Calm,Calm,-,N/A,,Clear,0,2013-11-05 12:35:00
7:55 AM,36.5,35.2,95,30.45,10.0,Calm,Calm,-,N/A,,Clear,0,2013-11-05 12:55:00
8:15 AM,37.8,35.6,92,30.45,10.0,Calm,Calm,-,N/A,,Clear,0,2013-11-05 13:15:00
8:35 AM,38.7,36.1,91,30.45,10.0,Calm,Calm,-,N/A,,Clear,0,2013-11-05 13:35:00
8:55 AM,39.9,37.2,90,30.45,10.0,Calm,Calm,-,N/A,,Clear,0,2013-11-05 13:55:00
9:15 AM,42.8,37.4,81,30.45,10.0,Calm,Calm,-,N/A,,Clear,0,2013-11-05 14:15:00
9:35 AM,47.5,37.8,69,30.45,10.0,Calm,Calm,-,N/A,,Clear,0,2013-11-05 14:35:00
9:55 AM,50.0,36.0,59,30.45,10.0,Calm,Calm,-,N/A,,Clear,0,2013-11-05 14:55:00
10:15 AM,51.6,36.0,55,30.44,10.0,Calm,Calm,-,N/A,,Clear,0,2013-11-05 15:15:00
10:35 AM,53.8,34.7,48,30.44,5.0,Calm,Calm,-,N/A,,Haze,0,2013-11-05 15:35:00
10:55 AM,55.6,34.7,45,30.44,10.0,Calm,Calm,-,N/A,,Clear,0,2013-11-05 15:55:00
11:15 AM,57.6,35.4,43,30.43,10.0,Calm,Calm,-,N/A,,Clear,0,2013-11-05 16:15:00
11:35 AM,59.2,34.3,39,30.42,10.0,West,5.8,-,N/A,,Scattered Clouds,280,2013-11-05 16:35:00
11:55 AM,59.9,35.2,40,30.42,10.0,West,5.8,-,N/A,,Mostly Cloudy,270,2013-11-05 16:55:00
12:15 PM,61.5,35.2,37,30.41,10.0,West,4.6,-,N/A,,Overcast,260,2013-11-05 17:15:00
12:35 PM,62.2,34.2,35,30.40,10.0,West,4.6,-,N/A,,Overcast,270,2013-11-05 17:35:00
12:55 PM,64.6,35.8,34,30.39,10.0,West,5.8,-,N/A,,Overcast,270,2013-11-05 17:55:00
1:15 PM,65.8,36.5,34,30.39,10.0,West,5.8,-,N/A,,Overcast,260,2013-11-05 18:15:00
1:35 PM,64.4,34.9,33,30.38,10.0,Calm,Calm,-,N/A,,Mostly Cloudy,0,2013-11-05 18:35:00
1:55 PM,65.5,37.0,35,30.37,10.0,Calm,Calm,-,N/A,,Overcast,0,2013-11-05 18:55:00
2:15 PM,65.3,40.3,40,30.37,10.0,Calm,Calm,-,N/A,,Overcast,0,2013-11-05 19:15:00
2:35 PM,66.0,41.4,41,30.37,10.0,West,5.8,-,N/A,,Overcast,260,2013-11-05 19:35:00
2:55 PM,67.6,43.3,41,30.36,10.0,WSW,5.8,-,N/A,,Mostly Cloudy,250,2013-11-05 19:55:00
3:15 PM,67.6,44.1,43,30.36,10.0,WSW,3.5,-,N/A,,Scattered Clouds,250,2013-11-05 20:15:00
3:35 PM,67.5,45.1,45,30.35,10.0,WSW,6.9,-,N/A,,Clear,250,2013-11-05 20:35:00
3:55 PM,67.6,44.4,43,30.34,10.0,West,5.8,-,N/A,,Clear,270,2013-11-05 20:55:00
4:15 PM,66.9,43.0,42,30.34,10.0,West,4.6,-,N/A,,Clear,270,2013-11-05 21:15:00
4:35 PM,66.2,43.2,43,30.33,10.0,West,3.5,-,N/A,,Clear,280,2013-11-05 21:35:00
4:55 PM,64.9,43.2,45,30.34,10.0,West,4.6,-,N/A,,Clear,270,2013-11-05 21:55:00
5:15 PM,58.3,44.8,61,30.34,10.0,Calm,Calm,-,N/A,,Clear,0,2013-11-05 22:15:00
5:35 PM,56.7,44.4,64,30.34,10.0,Calm,Calm,-,N/A,,Clear,0,2013-11-05 22:35:00
5:55 PM,52.5,44.1,73,30.34,10.0,Calm,Calm,-,N/A,,Clear,0,2013-11-05 22:55:00
6:15 PM,52.2,44.1,74,30.35,10.0,Calm,Calm,-,N/A,,Clear,0,2013-11-05 23:15:00
6:35 PM,50.0,43.5,78,30.35,10.0,Calm,Calm,-,N/A,,Clear,0,2013-11-05 23:35:00
6:55 PM,52.7,43.7,71,30.36,10.0,Calm,Calm,-,N/A,,Clear,0,2013-11-05 23:55:00
7:15 PM,48.0,42.6,82,30.35,10.0,Calm,Calm,-,N/A,,Clear,0,2013-11-06 00:15:00
7:35 PM,46.9,42.6,85,30.35,10.0,Calm,Calm,-,N/A,,Clear,0,2013-11-06 00:35:00
7:55 PM,46.6,41.9,84,30.36,10.0,Calm,Calm,-,N/A,,Clear,0,2013-11-06 00:55:00
8:15 PM,45.3,41.5,87,30.35,10.0,Calm,Calm,-,N/A,,Clear,0,2013-11-06 01:15:00
8:35 PM,45.5,41.9,87,30.36,10.0,Calm,Calm,-,N/A,,Clear,0,2013-11-06 01:35:00
8:55 PM,44.1,40.3,87,30.36,10.0,NW,3.5,-,N/A,,Clear,310,2013-11-06 01:55:00
9:15 PM,42.1,39.9,92,30.36,10.0,Calm,Calm,-,N/A,,Clear,0,2013-11-06 02:15:00
9:35 PM,42.8,39.9,90,30.37,10.0,Calm,Calm,-,N/A,,Clear,0,2013-11-06 02:35:00
9:55 PM,41.7,39.4,91,30.38,10.0,Calm,Calm,-,N/A,,Clear,0,2013-11-06 02:55:00
10:15 PM,41.2,40.1,96,30.38,10.0,Calm,Calm,-,N/A,,Scattered Clouds,0,2013-11-06 03:15:00
10:35 PM,43.9,41.5,91,30.38,10.0,Calm,Calm,-,N/A,,Mostly Cloudy,0,2013-11-06 03:35:00
10:55 PM,43.7,41.9,93,30.37,10.0,Calm,Calm,-,N/A,,Overcast,0,2013-11-06 03:55:00
11:15 PM,45.5,42.4,89,30.37,10.0,Calm,Calm,-,N/A,,Overcast,0,2013-11-06 04:15:00
11:35 PM,44.6,42.3,91,30.37,10.0,Calm,Calm,-,N/A,,Scattered Clouds,0,2013-11-06 04:35:00
11:55 PM,44.6,42.1,91,30.37,10.0,Calm,Calm,-,N/A,,Mostly Cloudy,0,2013-11-06 04:55:00